Regional Weather Roundup
Issued by NWS

Home | Current Version | Previous Version | Text Only | Print | Product List | Glossary Off
Versions: 1 2 3 4 5 6 7 8 9 10 11 12 13 14 15 16 17 18 19 20 21 22 23 24 25 26 27 28 29 30 31 32 33 34 35 36 37 38 39 40 41 42 43 44 45 46 47 48 49 50

000
ASUS43 KMPX 210901
RWRMN
WEATHER ROUNDUP FOR MINNESOTA
NATIONAL WEATHER SERVICE TWIN CITIES/CHANHASSEN MN
400 AM CDT MON MAY 21 2018


NOTE: "FAIR" INDICATES FEW OR NO CLOUDS BELOW 12,000 FEET WITH NO
SIGNIFICANT WEATHER AND/OR OBSTRUCTIONS TO VISIBILITY. N/A MEANS
CURRENT SKY AND/OR WEATHER CONDITIONS ARE NOT AVAILABLE.

MNZ060>063-068>070-211000-
   Twin Cities Metro

CITY           SKY/WX    TMP DP  RH WIND       PRES   REMARKS
TWIN CITIES    CLOUDY    61  46  57 SE13      30.13S
ST PAUL        CLOUDY    60  47  61 E6        30.13F
CRYSTAL        CLOUDY    60  44  55 SE5       30.12S
BLAINE         FAIR      57  46  67 E3        30.13S
LAKEVILLE      CLOUDY    57  48  72 SE6       30.12F
EDEN PRAIRIE   CLOUDY    60  47  61 SE9       30.11F
SOUTH ST PAUL  CLOUDY    60  47  61 SE3       30.13S
LAKE ELMO      CLOUDY    55  46  71 E3        30.15S
$$
MNZ001>005-007-008-013>017-022>024-027-028-211000-
   Northwest Minnesota

CITY           SKY/WX    TMP DP  RH WIND       PRES   REMARKS
BEMIDJI        FAIR      37  34  92 CALM      30.14S
HALLOCK        FAIR      46  36  66 SE8       30.10R
ROSEAU         FAIR      46  39  76 SE5       30.12S
WARROAD        FAIR      48  37  66 SW5       30.12F
THIEF RVR FALL FAIR      50  35  56 SE6       30.13S
CROOKSTON      FAIR      46  37  71 SE8       30.12S
FOSSTON        FAIR      45  32  61 CALM      30.13F
DETROIT LAKES  FAIR      48  39  71 CALM      30.13F
MOORHEAD       FAIR      48  34  57 E5        30.10F
PARK RAPIDS    FAIR      40  36  86 CALM      30.13F
MAHNOMEN       FAIR      50  36  57 SE6       30.12F
$$
MNZ006-009>011-018-025>026-211000-
   North Central Minnesota

CITY           SKY/WX    TMP DP  RH WIND       PRES   REMARKS
BAUDETTE       FAIR      46  34  62 S3        30.13S
FLAG ISLAND    FAIR      52  37  58 S5        30.10S
INTL FALLS     FAIR      37  36  96 CALM      30.14S
WASKISH        FAIR      36  34  93 CALM      30.14S
BIG FORK       FAIR      36  34  93 CALM      30.16S
LONGVILLE      FAIR      37  37 100 CALM      30.15S
GRAND RAPIDS   FAIR      39  34  82 CALM      30.18R
CRANE LAKE     FAIR      36  34  93 CALM      30.18R
ORR            FAIR      46  32  57 CALM      30.14S
COOK           FAIR      36  32  87 CALM      30.18R
WALKER         FAIR      37  35  94 CALM      30.14F
$$
MNZ012-019>021-037-211000-
   Northeast Minnesota

CITY           SKY/WX    TMP DP  RH WIND       PRES   REMARKS
DULUTH         FAIR      39  31  72 CALM      30.17R
ELY            FAIR      37  34  87 CALM      30.17S
HIBBING        FAIR      32  31  96 NW3       30.17R
EVELETH        FAIR      34  32  93 CALM      30.18S
DULUTH HARBOR  FAIR      46  43  87 NE3       30.18R
TWO HARBORS    FAIR      37  30  75 CALM      30.15S
SILVER BAY     FAIR      34  32  93 CALM      30.16S
GRAND MARAIS     N/A     39  33  79 CALM      30.16F
G MARAIS ARPRT FAIR      37  30  75 W3        30.19S
$$
MNZ029>031-032-039>041-046>048-054>057-064-211000-
   West Central Minnesota

CITY           SKY/WX    TMP DP  RH WIND       PRES   REMARKS
FERGUS FALLS   FAIR      52  36  54 E5        30.08S
WHEATON        CLOUDY    52  34  50 E6        30.10F
MORRIS         CLOUDY    57  36  44 E7        30.09S
ALEXANDRIA     FAIR      55  36  48 E8        30.12F
ELBOW LAKE     FAIR      55  37  50 SE8       30.11S
WADENA         FAIR      43  36  75 CALM      30.13S
GLENWOOD       MOCLDY    52  34  50 E5        30.11F
APPLETON       CLOUDY    57  43  58 E5        30.08F
BENSON         CLOUDY    57  37  47 E3        30.11S
ORTONVILLE     CLOUDY    57  37  47 E6        30.08F
MADISON        CLOUDY    61  52  72 E3        30.08F
WILLMAR        MOCLDY    57  45  62 E5        30.12S
$$
MNZ033>034-036-042>043-049>051-058-059-211000-
   Central Minnesota

CITY           SKY/WX    TMP DP  RH WIND       PRES   REMARKS
ST CLOUD       CLOUDY    51  35  54 NE3       30.13S
SAUK CENTRE    CLOUDY    47  40  76 CALM      30.12S
PAYNESVILLE    CLOUDY    55  40  57 CALM      30.12S
AITKIN         FAIR      34  32  93 CALM      30.14S
PINE RIVER     FAIR      36  34  93 CALM      30.17F
BRAINERD       FAIR      45  36  70 CALM      30.15R
STAPLES        FAIR      41  37  87 CALM      30.13F
LONG PRAIRIE   FAIR      46  36  66 CALM      30.13S
LITTLE FALLS   FAIR      50  34  53 CALM      30.14R
LITCHFIELD     CLOUDY    61  46  59 E3        30.11S
BUFFALO        CLOUDY    59  41  52 E5        30.13S
MAPLE LAKE     CLOUDY    57  46  65 CALM      30.13S
HUTCHINSON     LGT RAIN  59  50  73 E5        30.12S
$$
MNZ037-044-045-052-053-211000-
   East Central Minnesota

CITY           SKY/WX    TMP DP  RH WIND       PRES   REMARKS
PRINCETON      FAIR      48  39  71 CALM      30.14S
MORA           FAIR      43  36  75 CALM      30.17R
CAMBRIDGE      FAIR      46  37  71 CALM      30.14F
RUSH CITY      FAIR      43  37  79 CALM      30.15F
MOOSE LAKE     FAIR      37  34  87 CALM      30.15R
HINCKLEY       FAIR      37  36  93 CALM      30.16R
CLOQUET        FAIR      37  30  75 CALM      30.16S
MCGREGOR       FAIR      37  34  87 CALM      30.16S
$$
MNZ071>073-080-081-089-090-097-098-211000-
   Southwest Minnesota

CITY           SKY/WX    TMP DP  RH WIND       PRES   REMARKS
MONTEVIDEO     CLOUDY    59  46  63 SE5       30.09S
GRANITE FALLS  DRIZZLE   60  55  85 E5        30.10S
CANBY          CLOUDY    60  54  79 SE7       30.08F
MARSHALL       LGT RAIN  57  55  93 SE8       30.08F
REDWOOD FALLS  RAIN      56  56 100 E3        30.08F FOG
OLIVIA         RAIN      55  54  94 E3        30.09S
PIPESTONE      RAIN      55  54  94 CALM      30.07S
WINDOM         LGT RAIN  55  41  58 E7        30.07F
WORTHINGTON    LGT RAIN  54  53  97 E6        30.08S FOG
JACKSON        HVY RAIN  54  54 100 E5        30.09S
TRACY          CLOUDY    57  56  99 E3        30.08F FOG
SLAYTON        CLOUDY    55  54  97 E5        30.09F FOG
$$
MNZ065>067-074>077-082>085-091>093-211000-
   South Central Minnesota

CITY           SKY/WX    TMP DP  RH WIND       PRES   REMARKS
MANKATO        LGT RAIN  56  53  90 SE13      30.10F
NEW ULM        LGT RAIN  57  55  94 SE6       30.09S
ST JAMES       RAIN      55  54  94 E8        30.10S
FAIRMONT       LGT RAIN  55  53  93 E9        30.09F
GLENCOE        DRIZZLE   60  51  71 E8        30.11S
FARIBAULT      CLOUDY    57  52  82 CALM      30.12S
OWATONNA       MOCLDY    57  52  82 SE9       30.11F
WASECA         CLOUDY    55  52  88 E9        30.11F
ALBERT LEA     CLOUDY    55  52  88 SE9       30.10F
$$
MNZ078>079-086>088-094>096-211000-
   Southeast Minnesota

CITY           SKY/WX    TMP DP  RH WIND       PRES   REMARKS
ROCHESTER      CLOUDY    55  52  89 SE8       30.13F
RED WING       CLOUDY    61  45  55 SE9       30.12F
STANTON        CLOUDY    58  51  76 E3        30.11F
DODGE CENTER   CLOUDY    55  50  82 E10       30.12S
WINONA         CLOUDY    55  48  76 SE8       30.12S
AUSTIN         CLOUDY    55  52  88 SE8       30.11S FOG
PRESTON        CLOUDY    55  50  85 E7        30.13F
$$
ABBREVIATIONS USED IN REMARKS
   TC - TEMPERATURES IN CELSIUS
  WCI - WIND CHILL INDEX
   HX - HEAT INDEX
  VSB - VISIBILITY
$$




USA.gov is the U.S. government's official web portal to all federal, state and local government web resources and services.